Home > Weather > Cali > Past weeks

Flag for Colombia Past Weather in Cali, Colombia — Yesterday and Last 2 Weeks

Now
68 °F

Passing clouds.


Feels Like: 68 °F
Forecast: 71 / 85 °F
Wind: 6 mph from North

Location: Cali / Alfonso Bonillaaragon

Current Time: Aug 29, 2016 at 4:11:09 AM

Latest Report: Aug 29, 2016 at 3:00 AM


Visibility: N/A

Pressure: 29.98 "Hg (26.82 "Hg at 955m altitude)

Humidity: 83%

Dew Point: 63 °F

Location of CaliLocation

Past Weather in Cali — Graph

°F

Cali Temperature Yesterday

Maximum temperature yesterday: 90 °F (at 1:00 PM)
Minimum temperature yesterday: 66 °F (at 4:00 AM)
Average temperature yesterday: 77 °F

High & Low Weather Summary for the Past Weeks

 TemperatureHumidityPressure
High95 °F (Aug 21, 2:00 PM)100% (Aug 21, 4:00 AM)30.09 "Hg (Aug 21, 4:00 AM)
Low63 °F (Aug 21, 5:00 AM)25% (Aug 21, 2:00 PM)29.29 "Hg (Aug 24, 8:00 PM)
Average77 °F69%29.95 "Hg
* Reported Aug 14 3:00 AM — Aug 29 3:00 AM, Cali, Weather by CustomWeather, © 2016

Note: Actual official high and low records may vary slightly from our data, if they occured in-between our weather recording intervals... More about our weather records

Advertising

Cali Weather History for the Previous 24 Hours

Scroll right to see more
 ConditionsComfort  
Time TempWeatherWind HumidityBarometerVisibility
3:00 AM
Mon, Aug 29
68 °FPassing clouds.6 mph83%29.98 "HgN/A
2:00 AM66 °FPassing clouds.7 mph88%29.99 "HgN/A
1:00 AM66 °FPassing clouds.5 mph94%30.00 "HgN/A
12:00 AM70 °FPassing clouds.5 mph83%30.00 "HgN/A
11:00 PM
Sun, Aug 28
72 °FPassing clouds.7 mph78%30.03 "HgN/A
10:00 PM72 °FScattered showers. Partly cloudy.5 mph78%30.03 "HgN/A
9:00 PM73 °FThunderstorms. Partly cloudy.7 mph74%30.02 "Hg5 mi
8:00 PM79 °FPassing clouds.8 mph61%29.99 "HgN/A
7:00 PM77 °FPassing clouds.21 mph65%29.94 "HgN/A
6:00 PM79 °FPartly sunny.14 mph65%29.90 "HgN/A
5:00 PM82 °FScattered clouds.12 mph58%29.87 "HgN/A
4:00 PM88 °FScattered showers. Partly sunny.12 mph49%29.86 "HgN/A
3:00 PM88 °FBroken clouds.8 mph49%29.87 "HgN/A
2:00 PM88 °FScattered clouds.12 mph43%29.89 "HgN/A
1:00 PM90 °FPassing clouds.3 mph41%29.94 "HgN/A
12:00 PM88 °FScattered clouds.5 mph49%30.00 "HgN/A
11:00 AM84 °FPassing clouds.5 mph55%30.04 "HgN/A
10:00 AM82 °FPassing clouds.6 mph58%30.07 "Hg6 mi
9:00 AM77 °FScattered clouds.5 mph69%30.08 "Hg6 mi
8:00 AM75 °FScattered clouds.2 mph74%30.08 "Hg6 mi
7:00 AM72 °FScattered clouds.6 mph83%30.05 "HgN/A
6:00 AM68 °FPartly sunny.2 mph88%30.02 "HgN/A
5:00 AM66 °FPassing clouds.5 mph94%30.00 "HgN/A
4:00 AM66 °FPassing clouds.5 mph94%29.99 "HgN/A
Weather by CustomWeather, © 2016

See weather overviewHow to use our weather pages